This demonstration page uses our WeatherBlox Daily Observations layout. Learn more.

Hourly Observations for November 23, 2020

Temp ( °F °C ) Dew Point ( °F °C ) Humidity (%) Winds ( mph kmh ) Pressure ( in mb ) Visibility ( mi km ) Precip ( " mm )
12:15 am 00:15 Mostly Cloudy 54 12 52 11 94 94 S 7 11 30 1016 10 16.0934 0 0
12:35 am 00:35 Cloudy 54 12 52 11 94 94 S 10 17 30 1016 10 16.0934 0 0
12:55 am 00:55 Cloudy 54 12 52 11 94 94 S 8 13 29.98 1015 10 16.0934 0 0
1:15 am 01:15 Mostly Cloudy 54 12 54 12 100 100 SSW 10 17 29.98 1015 10 16.0934 0 0
1:35 am 01:35 Mostly Cloudy 54 12 54 12 100 100 SSW 10 17 29.97 1015 10 16.0934 0 0
1:55 am 01:55 Partly Cloudy 54 12 54 12 100 100 SSW 10 17 29.96 1015 10 16.0934 0 0
2:15 am 02:15 Mostly Cloudy 54 12 54 12 100 100 SSW 8 13 29.96 1015 10 16.0934 0 0
2:35 am 02:35 Cloudy 54 12 54 12 100 100 W 6 9 29.98 1015 10 16.0934 0 0
2:55 am 02:55 Cloudy 54 12 54 12 100 100 W 7 11 29.98 1015 10 16.0934 0 0
3:15 am 03:15 Cloudy 54 12 54 12 100 100 W 12 19 29.99 1016 7 11.26538 0.01 0.254
3:35 am 03:35 Cloudy 52 11 52 11 100 100 W 8 13 29.99 1016 7 11.26538 0.03 0.762
3:55 am 03:55 Cloudy 52 11 52 11 100 100 WNW 7 11 29.98 1015 7 11.26538 0.05 1.27
4:15 am 04:15 Cloudy 52 11 52 11 100 100 W 6 9 29.98 1015 10 16.0934 0 0
4:35 am 04:35 Cloudy 52 11 52 11 100 100 WNW 9 15 29.99 1016 10 16.0934 0 0
4:55 am 04:55 Cloudy 52 11 52 11 100 100 NW 13 20 30 1016 10 16.0934 0 0
5:15 am 05:15 Cloudy 52 11 50 10 94 94 NW 13 20 29.99 1016 10 16.0934 0.01 0.254
5:35 am 05:35 Cloudy 50 10 48 9 94 94 NW 20 31 30.01 1016 10 16.0934 0.01 0.254
5:55 am 05:55 Cloudy 50 10 46 8 88 88 NW 18 30 30.03 1017 10 16.0934 0.01 0.254
6:15 am 06:15 Cloudy 48 9 43 6 82 82 NNW 23 37 30.03 1017 10 16.0934 0 0
6:35 am 06:35 Mostly Cloudy 46 8 41 5 82 82 NNW 21 33 30.05 1018 10 16.0934 0 0
6:55 am 06:55 Mostly Cloudy 46 8 41 5 82 82 NNW 16 26 30.06 1018 10 16.0934 0 0
7:15 am 07:15 Mostly Cloudy 46 8 41 5 82 82 NNW 21 33 30.07 1018 10 16.0934 0 0
7:35 am 07:35 Cloudy 45 7 39 4 81 81 NNW 12 19 30.08 1019 10 16.0934 0 0
7:55 am 07:55 Cloudy 45 7 37 3 76 76 NW 18 30 30.09 1019 10 16.0934 0 0
8:15 am 08:15 Mostly Cloudy 45 7 36 2 71 71 NNW 21 33 30.1 1019 10 16.0934 0 0
8:35 am 08:35 Mostly Cloudy 46 8 36 2 66 66 NNW 14 22 30.12 1020 10 16.0934 0 0
8:55 am 08:55 Partly Cloudy 45 7 36 2 71 71 NNW 17 28 30.14 1021 10 16.0934 0 0
9:15 am 09:15 Mostly Cloudy 45 7 36 2 71 71 NW 14 22 30.16 1021 10 16.0934 0 0
9:35 am 09:35 Cloudy 45 7 34 1 66 66 N 21 33 30.17 1022 10 16.0934 0 0
9:55 am 09:55 Mostly Cloudy 45 7 34 1 66 66 N 20 31 30.18 1022 10 16.0934 0 0
10:15 am 10:15 Cloudy 45 7 34 1 66 66 NNW 12 19 30.19 1022 10 16.0934 0 0
10:35 am 10:35 Partly Cloudy 46 8 34 1 62 62 NW 17 28 30.19 1022 10 16.0934 0 0
10:55 am 10:55 Sunny 46 8 32 0 57 57 NW 23 37 30.19 1022 10 16.0934 0 0
11:15 am 11:15 Partly Cloudy 46 8 32 0 57 57 NW 14 22 30.19 1022 10 16.0934 0 0
11:35 am 11:35 Partly Cloudy 46 8 32 0 57 57 NNW 21 33 30.18 1022 10 16.0934 0 0
11:55 am 11:55 Sunny 48 9 32 0 54 54 NNW 21 33 30.17 1022 10 16.0934 0 0
12:15 pm 12:15 Sunny 50 10 32 0 50 50 NW 21 33 30.16 1021 10 16.0934 0 0
12:35 pm 12:35 Sunny 50 10 32 0 50 50 NW 14 22 30.15 1021 10 16.0934 0 0
12:55 pm 12:55 Partly Cloudy 50 10 32 0 50 50 NW 20 31 30.15 1021 10 16.0934 0 0
1:15 pm 13:15 Partly Cloudy 50 10 32 0 50 50 NNW 20 31 30.16 1021 10 16.0934 0 0
1:35 pm 13:35 Mostly Cloudy 48 9 32 0 54 54 N 16 26 30.16 1021 10 16.0934 0 0
1:55 pm 13:55 Mostly Cloudy 50 10 32 0 50 50 NNW 18 30 30.16 1021 10 16.0934 0 0
2:15 pm 14:15 Cloudy 46 8 32 0 57 57 NW 26 43 30.17 1022 10 16.0934 0 0
2:35 pm 14:35 Cloudy 48 9 32 0 54 54 NNW 21 33 30.17 1022 10 16.0934 0 0
2:55 pm 14:55 Cloudy 46 8 32 0 57 57 NW 23 37 30.17 1022 10 16.0934 0 0
3:15 pm 15:15 Cloudy 46 8 32 0 57 57 NW 20 31 30.19 1022 10 16.0934 0 0
3:35 pm 15:35 Cloudy 46 8 32 0 57 57 NNW 14 22 30.2 1023 10 16.0934 0 0
3:55 pm 15:55 Cloudy 46 8 32 0 57 57 NNW 10 17 30.21 1023 10 16.0934 0 0
4:15 pm 16:15 Cloudy 45 7 30 -1 57 57 N 12 19 30.22 1023 10 16.0934 0 0
4:35 pm 16:35 Cloudy 45 7 30 -1 57 57 N 7 11 30.23 1024 10 16.0934 0 0
4:55 pm 16:55 Cloudy 45 7 32 0 61 61 NNW 6 9 30.23 1024 10 16.0934 0 0
5:15 pm 17:15 Cloudy 45 7 32 0 61 61 N 10 17 30.24 1024 10 16.0934 0 0
5:35 pm 17:35 Cloudy 45 7 32 0 61 61 NNW 16 26 30.24 1024 10 16.0934 0 0
5:55 pm 17:55 Cloudy 45 7 32 0 61 61 NNW 12 19 30.25 1024 10 16.0934 0 0
6:15 pm 18:15 Cloudy 45 7 32 0 61 61 NNW 10 17 30.26 1025 10 16.0934 0 0
6:35 pm 18:35 Cloudy 45 7 32 0 61 61 N 5 7 30.26 1025 10 16.0934 0 0
6:55 pm 18:55 Cloudy 45 7 32 0 61 61 N 5 7 30.27 1025 10 16.0934 0 0
7:15 pm 19:15 Cloudy 45 7 32 0 61 61 NNW 7 11 30.27 1025 10 16.0934 0 0
7:35 pm 19:35 Partly Cloudy 45 7 32 0 61 61 NW 17 28 30.27 1025 10 16.0934 0 0
7:55 pm 19:55 Partly Cloudy 43 6 32 0 66 66 NW 9 15 30.28 1025 10 16.0934 0 0
8:15 pm 20:15 Partly Cloudy 43 6 30 -1 61 61 NNW 10 17 30.28 1025 10 16.0934 0 0
8:35 pm 20:35 Partly Cloudy 43 6 30 -1 61 61 NNW 10 17 30.28 1025 10 16.0934 0 0
8:55 pm 20:55 Partly Cloudy 41 5 28 -2 61 61 NNW 6 9 30.29 1026 10 16.0934 0 0
9:15 pm 21:15 Partly Cloudy 43 6 28 -2 57 57 NNW 14 22 30.29 1026 10 16.0934 0 0
9:35 pm 21:35 Clear 43 6 28 -2 57 57 NNW 14 22 30.29 1026 10 16.0934 0 0
9:55 pm 21:55 Clear 43 6 28 -2 57 57 NNW 8 13 30.29 1026 10 16.0934 0 0
10:15 pm 22:15 Mostly Cloudy 41 5 30 -1 66 66 NW 9 15 30.3 1026 10 16.0934 0 0
10:35 pm 22:35 Partly Cloudy 37 3 30 -1 75 75 WNW 8 13 30.32 1027 10 16.0934 0 0
10:55 pm 22:55 Clear 39 4 30 -1 70 70 NW 8 13 30.32 1027 10 16.0934 0 0
11:15 pm 23:15 Clear 37 3 30 -1 75 75 NW 6 9 30.33 1027 10 16.0934 0 0
11:35 pm 23:35 Clear 37 3 30 -1 75 75 WNW 5 7 30.33 1027 10 16.0934 0 0
11:55 pm 23:55 Clear 36 2 30 -1 81 81 NW 5 7 30.33 1027 10 16.0934 0 0

Powered by AerisWeather